User: anonymous   Login
Location: Bothwell
(42.3833°S, 147.0000°E)
Time: 23:21:31
(UTC+11:00)
Language:

Gurwin Techsat 1B - Orbit

View from above orbital plane
View from above orbital plane
View from above satellite
View from above satellite

Ground track
Ground track

The orbit data is extracted from the following two-line orbital elements,

1 25397U 98043D   24064.89686255  .00000168  00000-0  93067-4 0  9999
2 25397  98.9089  30.1369 0002369  95.0610 265.0838 14.23994826332574
Epoch (UTC): 04 March 2024 21:31:28
Eccentricity: 0.0002369
inclination: 98.9089°
perigee height: 810 km
apogee height: 813 km
right ascension of ascending node: 30.1369°
argument of perigee: 95.0610°
revolutions per day: 14.23994826
mean anomaly at epoch: 265.0838°
orbit number at epoch: 33257

The dashed part of the orbit path shows where the satellite is in the earth's shadow,  

DLR